Flag for Germany Weather past 2 weeks in Melsungen, Hesse, Germany

Now
69 °F

Overcast.


Feels Like: 69 °F
Forecast: 53 / 86 °F
Wind: 1 mph from North

Location: Fritzlar

Current Time: Aug 2, 2015 at 10:41:56 PM

Latest Report: Aug 2, 2015 at 10:00 PM


Visibility: 25 mi

Pressure: 30.08 "Hg

Humidity: 52%

Dew point: 51 °F

Location of MelsungenLocation

Historic Weather in Melsungen — Graph

°F

Melsungen temperature yesterday

Maximum temperature yesterday: 78 °F (at 6:00 PM)
Minimum temperature yesterday: 49 °F (at 5:00 AM)
Average temperature yesterday: 62 °F

Past Weeks' High & Low Weather Summary

 TemperatureHumidityPressure
High83 °F (Jul 21, 6:00 PM)98% (Jul 20, 4:00 AM)30.15 "Hg (Jul 20, 4:00 AM)
Low45 °F (Jul 31, 5:00 AM)27% (Aug 2, 6:00 PM)29.58 "Hg (Jul 25, 10:00 AM)
Average64 °F69%29.89 "Hg
* Reported Jul 18 9:00 PM — Aug 2 9:00 PM, Melsungen, Weather by CustomWeather, © 2015

Note: Actual official high and low records may vary slightly from our data, if they occured in-between our weather recording intervals... More about our weather records

Advertising

Melsungen weather history for previous 24 hours

 ConditionsComfort  
Time TempWeatherWind HumidityBarometerVisibility
9:00 PM
Sun, Aug 2
75 °FOvercast.2 mph40%30.06 "Hg25 mi
8:00 PM79 °FPartly sunny.2 mph32%30.05 "Hg31 mi
7:00 PM80 °FPassing clouds.2 mph31%30.05 "Hg31 mi
6:00 PM81 °FPassing clouds.N/A27%30.06 "Hg31 mi
5:00 PM80 °FPassing clouds.3 mph30%30.07 "Hg31 mi
4:00 PM80 °FPassing clouds.2 mph33%30.08 "Hg31 mi
3:00 PM79 °FScattered clouds.2 mph34%30.10 "Hg31 mi
2:00 PM78 °FScattered clouds.2 mph38%30.10 "Hg28 mi
1:00 PM76 °FScattered clouds.2 mph40%30.12 "Hg25 mi
12:00 PM73 °FScattered clouds.2 mph45%30.13 "Hg25 mi
11:00 AM70 °FScattered clouds.3 mph50%30.14 "Hg22 mi
10:00 AM67 °FPassing clouds.N/A59%30.14 "Hg22 mi
9:00 AM63 °FPassing clouds.N/A69%30.13 "Hg22 mi
8:00 AM56 °FPassing clouds.1 mph83%30.13 "Hg19 mi
7:00 AM55 °FPassing clouds.2 mph81%30.12 "Hg19 mi
5:00 AM56 °FPassing clouds.2 mph79%30.09 "Hg19 mi
4:00 AM57 °FPassing clouds.2 mph75%30.08 "Hg19 mi
1:00 AM60 °FPassing clouds.5 mph68%30.04 "Hg19 mi
11:00 PM
Sat, Aug 1
63 °FPassing clouds.3 mph62%30.01 "Hg19 mi
10:00 PM64 °FPassing clouds.5 mph60%30.00 "Hg19 mi
Weather by CustomWeather, © 2015

See weather overviewHow to use our weather pages